Location: Bel Aire
(37.9013°N, 122.4991°W)
Time: 00:30:53
(UTC+00:00)

Daily predictions for brighter satellites

Satellite Brightness Start Highest point End
(mag) Time Altitude Azimuth Time Altitude Azimuth Time Altitude Azimuth
Cosmos 2227 4.2 02:26:08 10° SSW 02:31:51 75° ESE 02:37:35 10° NNE
GP-B 3.1 02:30:01 10° N 02:34:29 75° E 02:38:54 10° S
SKYMED 2 4.3 02:30:35 10° N 02:34:53 61° WNW 02:39:09 10° SSW
ATLAS 5 CENTAUR R/B 3.2 02:32:35 10° NNW 02:35:41 36° ENE 02:44:16 10° SE
Okean 2 3.9 02:33:15 10° N 02:37:11 39° E 02:41:05 10° SSE
Cosmos 1943 3.7 02:35:56 10° N 02:41:12 39° ENE 02:46:28 10° SE
Cosmos 1975 2.8 02:41:50 10° S 02:45:53 73° E 02:49:57 10° NNE
CZ-4 R/B 1.5 02:44:09 10° SSE 02:48:22 84° E 02:52:36 10° N
Cosmos 1544 3.8 02:45:50 10° SSW 02:49:27 60° W 02:53:05 10° N
Tsikada Rocket 4.1 02:43:28 10° N 02:49:38 84° W 02:55:48 10° S
Cosmos 1898 Rocket 3.7 02:44:50 10° SSW 02:49:59 78° WNW 02:55:11 10° NNE
CSL-04 Debris 4.3 02:44:47 10° SSE 02:49:59 53° ENE 02:55:13 10° N
Cosmos 1782 Rocket 3.5 02:47:31 10° S 02:51:52 66° E 02:56:16 10° NNE
CZ-2C R/B 1.4 02:50:15 10° WSW 02:53:43 43° S 02:56:26 14° ESE
Cosmos 1908 Rocket 4.2 02:49:46 10° SSW 02:54:03 59° W 02:58:22 10° N
Meteor 1-21 4.3 02:49:48 10° N 02:55:17 53° ENE 03:00:44 10° SSE
CSL-04 Rocket 3.7 02:53:56 10° SSE 02:59:13 61° ENE 03:04:37 10° N
Cosmos 1603 3.7 02:55:29 10° NNW 03:01:08 68° ENE 03:06:42 10° SSE
Milstar 3 Cent rocket 3.9 02:57:56 10° SSW 03:02:49 19° S 03:06:06 11° SE
Cosmos 1842 3.1 03:01:52 10° N 03:05:45 83° E 03:09:37 10° S
Cosmos 372 Rocket 4.2 03:02:28 10° S 03:07:30 49° ESE 03:12:32 10° NNE
Cosmos 807 4.3 03:05:56 10° S 03:08:55 79° W 03:12:18 10° N
NOSS 2-2 (C) 3.2 03:11:49 10° SW 03:15:19 75° WNW 03:18:58 10° NNE
Cosmos 1937 Rocket 4.2 03:13:57 10° SSW 03:19:08 59° WNW 03:24:19 10° N
Cosmos 1707 3.1 03:15:59 10° N 03:19:36 39° E 03:21:44 20° SE
Cosmos 2084 Rocket 3.5 03:15:32 10° NNW 03:20:00 75° NE 03:23:22 18° SE
Cosmos 1975 Rocket 2.9 03:15:48 10° N 03:20:09 85° E 03:24:28 10° S
SJ-6B 4.0 03:19:57 22° ENE 03:20:11 22° ENE 03:23:06 10° NNE
Cosmos 1125 Rocket 4.4 03:18:20 10° SSE 03:22:40 26° E 03:27:03 10° NE
MOS 1 Rocket 3.0 03:18:40 10° NNE 03:23:07 87° ESE 03:27:24 10° SSW
ISS -3.1 03:20:00 10° WSW 03:23:17 54° NW 03:26:13 13° NE
Resurs 01 Rocket 3.9 03:27:09 10° NE 03:27:09 10° NE 03:27:10 10° NE
Sich 1 Rocket 3.8 03:27:11 10° SSW 03:31:37 75° W 03:36:10 10° N
Cosmos 1437 3.8 03:30:01 10° NNW 03:32:51 41° W 03:35:41 10° SSW
Cosmos 1072 Rocket 4.4 03:30:55 10° S 03:37:08 87° E 03:43:28 10° N
USA 102 4.4 03:37:52 32° SSE 03:40:26 88° ENE 03:45:51 10° NNW
USA 234 3.2 03:34:10 10° NE 03:40:39 63° SE 03:47:08 10° SSW
H-2A R/B 2.3 03:36:15 10° S 03:41:07 64° WSW 03:46:07 10° NNW
Cosmos 2034 Rocket 4.0 03:37:11 10° S 03:43:27 63° E 03:49:43 10° NNE
Nadezhda 4 Rocket 4.1 03:38:45 10° N 03:44:41 50° E 03:47:45 27° SE
SL-08 RB Rocket 3.6 03:43:25 22° SSE 03:46:23 76° ENE 03:50:57 10° N
In-Cosmos 22 4.0 03:41:23 10° N 03:46:39 63° E 03:49:36 26° SSE
ARGOS 3.2 03:41:19 10° S 03:46:40 79° WSW 03:52:03 10° NNW
Cosmos 1174 4.3 03:42:09 10° SSW 03:46:43 82° ESE 03:52:36 10° NNE
Okean 2 Rocket 3.3 03:46:42 10° SSW 03:51:12 72° W 03:55:41 10° N
BREEZE-M DEB (TANK) 3.8 03:49:17 10° WSW 03:52:18 64° NNW 04:01:27 10° NE
CZ-2C R/B 2.6 03:49:10 10° NNE 03:54:44 81° ESE 04:00:20 10° S
Cosmos 1048 Rocket 4.4 03:49:58 10° N 03:55:01 42° ENE 03:55:33 40° E
USA 186 2.1 03:57:54 61° NW 03:57:54 61° NW 04:00:40 10° NNW
MOS 1 4.2 03:56:46 32° SSE 03:59:29 71° ENE 04:05:10 10° N
Cosmos 1844 3.6 03:55:24 10° S 04:01:02 62° ESE 04:06:37 10° NNE
Cosmos 1300 Rocket 4.3 03:58:23 10° SSW 04:02:40 53° W 04:07:00 10° N
DELTA 2 R/B (1) 3.8 04:01:45 10° W 04:07:11 57° SSW 04:08:23 46° SSE
Cosmos 1844 Rocket 2.6 04:06:16 10° SSW 04:11:50 84° WNW 04:17:26 10° NNE
Ariane Rocket 3.1 04:11:02 33° S 04:13:18 73° WSW 04:18:23 10° NNW
ATLAS 2AS CENTAUR R/B 3.2 04:09:19 10° S 04:20:13 29° ENE 04:24:09 10° NE
Cosmos 1634 Rocket 4.2 04:17:30 47° ENE 04:17:30 47° ENE 04:22:41 10° NNE
OBJECT-B 3.5 04:20:34 14° N 04:20:34 14° N 04:21:08 10° N
Cosmos 2285 Rocket 3.8 04:16:03 10° SSW 04:22:19 80° ESE 04:28:40 10° NNE
Cosmos 1536 Rocket 3.8 04:19:48 10° NNW 04:24:13 66° W 04:24:21 66° WSW
SPOT 3 Rocket 3.8 04:26:58 57° NNE 04:26:58 57° NNE 04:31:18 10° N
Meteor 1-15 Rocket 4.3 04:22:48 10° SSW 04:28:22 73° W 04:34:03 10° N
MetOp-A 4.4 04:30:39 48° SSW 04:31:58 64° WSW 04:37:18 10° NNW
CENTAUR R/B 3.4 04:25:07 10° NNW 04:33:05 51° NE 04:34:28 47° ENE
CZ-2C R/B 3.4 04:29:46 10° W 04:30:47 17° WSW 04:30:47 17° WSW
ATLAS 3B R/B 4.3 04:33:55 10° N 04:38:50 20° NE 04:39:00 20° NE
Cosmos 1867 4.4 04:36:55 10° NW 04:42:03 43° WSW 04:42:46 41° SW
USA 238 DEB 3.7 04:34:52 10° NNW 04:42:11 77° ENE 04:42:53 71° ESE
USA 238 3.7 04:34:58 10° NNW 04:42:18 76° ENE 04:42:58 71° E
Cosmos 1092 Rocket 3.8 04:37:20 10° N 04:43:32 89° W 04:43:35 88° SSW
Cosmos 2195 Rocket 4.4 04:40:12 10° N 04:46:03 78° NNE 04:46:03 78° NNE
Meteor 2-13 Rocket 4.4 04:43:06 10° N 04:49:16 78° W 04:49:24 77° WSW
Cosmos 2026 Rocket 4.1 04:44:14 10° N 04:49:46 66° NNE 04:49:46 66° NNE
ISS -0.2 04:59:10 10° NW 04:59:13 10° NW 04:59:13 10° NW
Resurs 01 Rocket 3.7 05:04:43 23° NNW 05:04:43 23° NNW 05:06:28 10° NNW
Meteor 2-5 Rocket 4.4 04:58:44 10° NNW 05:03:02 52° NNW 05:03:02 52° NNW
NOSS 3-2 (A) 4.2 05:02:34 10° NW 05:10:21 70° WSW 05:11:00 68° SSW
USA 234 4.4 05:17:27 10° NNE 05:23:25 39° NNW 05:29:23 10° W
NOSS 3-2 (C) 4.5 05:36:59 10° NW 05:43:26 59° WNW 05:43:26 59° WNW
ATLAS 2AS CENTAUR R/B 3.9 06:00:17 10° WSW 06:07:45 43° NW 06:15:14 10° NNE
CENTAUR R/B 4.3 06:16:05 10° NW 06:21:40 36° W 06:21:40 36° W
ATLAS 3B R/B 4.4 06:23:29 10° NNW 06:26:15 27° NNW 06:26:15 27° NNW
Cosmos 1697 Rocket 3.8 11:01:19 38° NNE 11:01:19 38° NNE 11:04:45 10° NNE
Cosmos 1980 Rocket 2.9 11:04:20 52° ENE 11:04:20 52° ENE 11:08:58 10° NNE
SL-16 R/B 4.4 11:13:21 10° SE 11:17:19 20° E 11:21:19 10° NE
Spot 4 Rocket 4.4 11:17:57 10° NNE 11:22:08 59° NNE 11:22:08 59° NNE
Lacrosse 5 3.1 11:27:59 33° N 11:27:59 33° N 11:31:29 10° NNE
Cosmos 1238 Rocket 4.4 11:22:20 10° N 11:28:52 60° E 11:34:45 10° SSE
Cosmos 921 Rocket 4.1 11:32:00 39° E 11:32:00 39° E 11:35:42 10° NNE
NOSS 3-3 (A) 4.0 11:32:28 57° SSE 11:33:17 64° ESE 11:39:26 10° NE
NOSS 3-3 (C) 4.0 11:32:38 57° SSE 11:33:25 63° ESE 11:39:30 10° NE
Cosmos 44 3.7 11:37:02 52° NNE 11:37:02 52° NNE 11:40:31 10° NNE
USA 267 4.1 11:32:02 10° NNE 11:37:50 35° NNW 11:38:59 33° NW
Cosmos 972 4.4 11:38:26 81° NNE 11:38:26 81° NNE 11:43:06 10° NNE
Cosmos 2228 Rocket 3.5 11:38:52 58° E 11:38:52 58° E 11:43:08 10° NNE
Cosmos 1821 Rocket 4.3 11:34:22 10° NNW 11:39:20 49° NW 11:39:20 49° NW
X-37B 3.3 11:42:47 18° NNE 11:42:47 18° NNE 11:44:07 10° NE
ADEOS II 4.1 11:42:36 10° NNW 11:44:02 15° NNW 11:44:02 15° NNW
